Location: Rostock
(54.0884°N, 12.1234°E)
Time: 07:47:47
(UTC+02:00)

ISS - Visible Passes

Search period start: 09 May 2021 00:00
Search period end: 19 May 2021 00:00
Orbit: 418 x 421 km, 51.6° (Epoch: 08 May)

Date Brightness Start Highest point End Pass type
(mag) Time Alt. Az. Time Alt. Az. Time Alt. Az.
09 May -2.6 02:03:26 29° SE 02:03:26 29° SE 02:05:44 10° E visible
09 May -3.7 03:36:23 14° WSW 03:39:10 57° S 03:42:30 10° E visible
10 May -1.5 01:17:27 15° ESE 01:17:27 15° ESE 01:18:14 10° E visible
10 May -3.7 02:50:22 29° WSW 02:51:46 54° S 02:55:06 10° E visible
10 May -3.4 04:25:07 10° W 04:28:23 46° SSW 04:31:39 10° ESE visible
11 May -3.6 02:04:21 48° S 02:04:24 48° SSE 02:07:41 10° E visible
11 May -3.6 03:37:42 10° W 03:41:00 53° S 03:44:19 10° ESE visible
12 May -2.5 01:18:16 28° ESE 01:18:16 28° ESE 01:20:16 10° E visible
12 May -3.7 02:51:12 17° WSW 02:53:38 56° S 02:56:57 10° ESE visible
12 May -2.9 04:27:05 10° W 04:30:08 31° SSW 04:33:10 10° SE visible
13 May -1.5 00:32:07 15° E 00:32:07 15° E 00:32:48 10° E visible
13 May -3.8 02:05:01 34° WSW 02:06:14 57° S 02:09:34 10° E visible
13 May -3.3 03:39:36 10° W 03:42:48 39° SSW 03:45:59 10° SE visible
14 May -3.7 01:18:38 53° S 01:18:51 54° S 01:22:10 10° E visible
14 May -3.5 02:52:11 10° W 02:55:26 46° SSW 02:58:42 10° ESE visible
14 May -2.4 22:52:33 10° SSW 22:55:07 20° SSE 22:55:40 19° SE visible
15 May -3.6 00:28:11 10° WSW 00:31:28 48° SSE 00:34:45 10° E visible
15 May -3.7 02:04:45 10° W 02:08:04 52° S 02:11:22 10° ESE visible
15 May -2.6 03:41:40 10° W 03:44:28 24° SSW 03:47:17 10° SSE visible
15 May -2.0 22:05:51 10° S 22:07:53 15° SE 22:09:54 10° ESE visible
15 May -3.4 23:40:53 10° SW 23:44:05 41° SSE 23:47:18 10° E visible
16 May -3.8 01:17:21 10° W 01:20:40 56° S 01:24:00 10° ESE visible
16 May -3.0 02:54:08 10° W 02:57:10 31° SSW 03:00:12 10° SE visible
16 May -3.1 22:53:40 10° SW 22:56:45 34° SSE 22:59:50 10° E visible
17 May -3.8 00:29:57 10° WSW 00:33:16 57° S 00:36:36 10° E visible
17 May -3.3 02:06:39 10° W 02:09:50 38° SSW 02:13:00 10° SE visible
17 May -1.9 03:44:15 10° WSW 03:46:01 14° SW 03:47:46 10° S visible
17 May -2.7 22:06:33 10° SSW 22:09:26 26° SSE 22:12:19 10° E visible
17 May -3.7 23:42:34 10° WSW 23:45:52 54° S 23:49:11 10° E visible
18 May -3.5 01:19:13 10° W 01:22:28 46° SSW 01:22:56 42° SSE visible
18 May -3.6 22:55:13 10° WSW 22:58:29 49° SSE 23:01:46 10° E visible
